Theta_e
333 331 323 317 302 301 299 303 310 313 313 315 317 315 311 312 312 308 327 340 341 344 348 350 354 352 352 351 349 348 347 346 345 343 340 338 337 336 335 335 334 334 335 335 336 336 337 336 336
325 320 315 313 300 296 298 307 310 315 319 320 317 314 313 317 327 327 329 341 343 343 345 346 353 352 352 351 350 349 348 347 346 344 340 339 338 337 336 335 335 336 337 336 336 337 338 341 340
330 322 305 304 303 298 299 308 316 320 323 320 317 319 316 317 327 328 334 343 342 342 343 344 353 353 352 351 350 349 348 348 347 344 343 340 340 340 340 338 338 338 339 340 340 340 340 341 344
319 315 307 301 302 308 308 312 319 319 322 323 320 315 319 327 325 329 344 344 342 342 340 349 353 353 352 352 351 350 349 349 348 346 344 343 342 343 343 340 340 339 339 341 343 343 343 343 343
317 309 298 299 302 309 311 313 320 317 319 320 321 316 317 325 330 331 338 345 342 341 339 348 353 354 353 353 352 351 350 349 349 348 346 345 347 346 345 342 341 341 342 344 345 345 345 344 344
306 305 297 297 303 310 313 315 314 314 313 314 315 317 316 326 326 328 331 337 343 341 340 346 353 354 353 353 352 351 350 350 350 349 349 348 348 348 346 344 343 344 345 346 344 344 343 344 343
303 298 297 300 303 307 312 316 311 310 311 313 315 313 316 322 324 325 326 327 333 343 342 345 346 350 354 352 352 351 350 350 349 349 349 349 349 348 348 348 347 347 347 345 343 342 341 341 342
308 301 297 300 302 305 314 315 315 313 314 319 320 312 312 320 325 324 323 322 320 340 345 344 345 344 346 347 353 352 351 350 349 349 349 349 349 349 349 348 348 347 345 343 341 339 338 338 340
315 296 294 299 303 307 314 312 317 319 316 318 319 318 320 322 321 318 317 319 317 330 344 344 344 344 343 344 349 351 352 351 350 350 350 347 341 341 342 345 347 346 345 343 341 339 337 336 337
314 297 298 305 307 308 311 312 314 315 314 316 318 322 324 324 320 317 316 315 315 317 341 344 344 344 343 343 344 346 346 345 346 345 344 342 338 333 336 342 349 347 347 344 341 339 337 336 329
314 306 307 307 309 311 311 312 316 314 311 314 315 318 321 321 319 318 317 316 316 317 323 343 344 344 343 342 343 345 344 344 345 341 339 339 338 335 337 332 339 335 342 332 335 332 330 329 328
306 310 312 311 311 310 309 314 312 314 312 316 317 318 318 317 316 317 316 317 317 316 319 341 345 345 343 341 341 343 341 342 341 341 337 339 337 335 333 331 332 331 330 329 328 328 329 329 331
306 307 310 313 312 311 313 311 311 312 317 318 318 318 317 317 317 318 319 319 319 317 319 336 345 345 343 339 341 341 340 340 340 339 339 338 337 332 331 329 331 331 331 329 329 330 330 331 330
308 309 308 310 310 312 311 311 311 313 315 315 315 315 315 317 317 317 318 318 317 320 320 331 340 344 343 340 340 341 341 340 339 339 340 339 336 331 333 333 330 329 328 328 328 327 327 327 327
304 301 306 309 309 308 311 306 308 313 314 314 314 315 315 316 317 317 317 317 320 321 322 332 338 340 341 340 337 341 342 341 339 338 340 339 335 332 334 331 330 330 330 329 329 328 328 327 327
300 300 295 302 307 310 308 301 309 313 313 312 314 315 316 315 317 318 318 319 321 320 322 329 341 341 340 338 340 341 342 340 339 336 339 338 335 335 334 330 329 330 330 329 328 326 325 326 325
298 292 294 298 306 306 305 302 310 313 313 312 313 314 315 316 315 317 320 318 318 321 324 332 339 342 342 341 339 342 340 336 334 333 333 337 337 338 333 331 329 330 330 329 328 327 325 323 324
292 294 296 296 302 305 303 303 308 311 311 311 313 313 314 314 313 316 320 321 321 322 327 331 336 342 344 344 341 341 338 334 334 332 332 334 336 337 333 331 329 330 329 327 326 325 324 324 323
297 297 296 299 304 303 302 303 306 310 309 308 309 311 312 313 315 316 320 320 319 330 332 336 340 343 345 343 340 336 333 332 333 332 334 335 335 335 332 330 329 329 327 326 326 324 323 322 323
296 293 294 300 304 302 302 301 306 309 308 309 310 310 311 311 314 316 316 317 323 326 333 337 343 344 343 342 338 336 331 332 332 331 331 332 332 331 330 328 327 327 326 325 324 322 320 320 321
294 293 293 294 300 301 299 297 300 305 308 310 310 310 311 312 311 312 313 314 327 329 334 337 342 341 341 340 339 334 330 329 327 328 330 331 332 333 331 329 328 326 325 323 322 322 320 317 318
290 298 297 297 295 290 299 289 297 301 304 307 310 310 312 311 313 314 313 322 327 330 333 335 341 340 341 338 334 329 326 324 326 326 329 331 331 331 331 329 328 326 325 323 323 324 321 318 316
294 299 297 297 294 293 294 291 295 301 300 302 306 308 309 310 312 313 314 327 329 330 332 337 339 337 336 333 331 327 324 326 327 328 328 329 327 328 330 328 326 325 324 324 323 323 322 321 317
299 297 296 295 292 285 292 292 293 296 300 304 306 308 310 310 311 315 327 329 329 333 334 337 335 333 333 331 330 328 326 326 324 326 326 326 325 327 327 328 325 325 325 324 324 324 323 321 321
294 290 284 283 284 284 293 292 295 300 304 306 306 307 310 315 322 324 325 327 329 331 333 333 331 328 331 332 328 330 325 326 325 324 324 324 324 324 325 325 323 324 326 326 325 323 323 324 322
288 290 284 278 282 285 294 289 294 304 307 308 309 307 318 320 322 323 325 327 329 331 331 330 328 328 329 328 329 329 327 325 326 325 325 325 324 325 324 325 326 327 328 328 326 324 324 324 322
289 286 294 288 290 286 290 295 300 303 304 307 307 308 316 319 321 323 323 326 329 329 328 328 328 327 328 327 329 328 327 327 326 326 325 324 325 325 326 325 326 328 328 328 326 324 322 324 322
292 294 286 288 281 281 288 291 292 300 302 306 306 313 316 319 321 322 323 326 328 328 328 328 327 327 327 329 328 327 328 328 327 326 324 325 324 325 325 325 327 328 327 328 325 323 326 327 325
290 288 289 290 288 284 283 289 301 302 305 304 307 315 317 318 320 321 324 326 327 327 328 327 326 327 326 328 326 327 328 328 325 325 327 324 323 327 325 326 327 328 326 326 324 323 325 326 326
294 291 290 286 286 290 288 290 306 307 307 305 310 317 317 320 321 323 325 325 325 326 326 325 325 326 325 328 327 328 328 325 325 324 325 324 321 322 324 326 330 328 328 325 324 325 327 326 323
Wind_Speed
2 2 2 2 3 2 4 9 10 8 7 4 6 6 2 3 6 5 2 14 19 18 16 18 21 20 20 20 19 17 17 16 15 14 14 13 11 10 9 8 6 5 4 3 2 1 1 1 2
2 4 2 3 1 2 6 9 1 3 1 13 8 1 6 7 14 8 7 15 18 17 14 14 21 20 20 20 19 18 17 16 16 15 14 13 11 10 9 7 6 6 5 4 4 4 4 4 4
3 6 1 4 4 6 6 6 6 6 7 9 5 3 2 5 5 6 10 15 17 14 11 10 17 17 18 18 18 18 16 16 16 15 14 12 11 10 8 7 7 7 6 6 6 6 6 6 7
3 1 4 2 10 14 11 11 6 5 10 21 12 2 4 0 4 8 16 19 17 16 16 18 19 18 19 18 18 18 16 15 15 15 15 14 13 11 10 9 8 8 7 7 8 9 8 8 7
4 2 4 4 9 14 14 13 12 14 13 25 14 6 9 5 12 11 17 18 18 17 17 19 24 21 21 20 19 18 18 16 16 16 16 15 13 11 10 10 9 8 8 9 10 10 9 9 9
4 3 3 6 11 18 16 14 6 8 2 7 4 8 4 9 8 10 10 17 18 19 18 19 27 24 23 21 21 20 19 18 17 17 16 15 13 12 11 10 10 10 10 9 8 8 8 7 8
4 2 6 8 15 19 16 9 5 3 5 4 4 6 7 7 9 11 12 10 15 18 18 16 20 24 26 23 22 21 19 19 18 17 16 16 14 13 12 12 12 10 9 9 9 10 10 10 9
3 1 5 7 13 20 16 11 8 5 1 2 5 3 4 5 10 9 7 8 6 18 16 16 14 17 18 17 23 22 21 19 18 17 16 15 15 14 13 13 11 12 11 11 11 11 11 11 12
7 3 6 11 11 18 17 12 10 3 4 4 4 4 6 8 4 4 2 4 3 12 16 16 17 17 17 16 18 22 23 20 18 17 17 13 5 7 10 11 14 14 15 13 14 12 12 12 12
13 7 10 12 15 17 14 10 18 15 7 13 13 19 22 16 3 5 3 5 6 8 18 16 15 17 15 13 15 14 14 12 11 10 10 7 7 6 8 10 17 16 16 14 14 13 13 11 4
18 22 15 16 19 20 20 19 14 16 8 6 4 10 14 12 8 1 3 5 7 7 7 16 15 15 16 13 10 8 8 8 8 10 8 7 7 5 4 3 4 4 10 4 7 6 5 5 5
19 20 20 15 20 23 23 20 19 17 11 8 10 7 4 7 5 7 7 8 8 8 4 19 18 15 16 11 10 11 10 9 8 9 11 8 5 5 5 4 5 5 4 5 4 4 5 7 8
25 21 18 19 20 23 25 26 22 22 17 11 10 13 11 9 9 9 10 9 10 9 7 14 17 17 16 14 11 11 10 10 10 10 11 8 6 5 4 4 3 4 5 5 5 5 6 8 7
15 17 21 17 23 22 24 26 21 18 11 15 16 18 11 10 11 7 9 11 9 8 8 10 18 18 16 14 13 11 10 11 10 9 10 11 7 5 4 4 4 4 5 5 3 3 3 3 3
18 20 19 24 22 25 21 29 30 19 16 21 16 15 11 11 12 11 11 12 9 7 8 11 16 16 17 16 11 10 9 11 10 7 11 11 8 6 5 4 3 4 3 4 2 2 1 2 3
18 16 22 21 22 23 12 41 19 15 19 15 20 22 16 11 12 10 11 7 9 8 9 8 11 15 14 12 6 8 8 9 9 7 8 11 8 8 5 4 3 3 4 3 2 2 3 4 4
17 21 22 25 21 18 14 33 17 16 18 22 26 24 20 18 10 9 10 11 11 10 9 9 11 15 13 8 7 6 8 6 6 6 6 10 9 7 6 4 4 3 4 3 3 3 4 3 4
12 22 24 30 10 18 23 31 28 28 24 24 22 19 18 13 11 10 10 9 9 6 6 8 8 11 11 7 6 4 5 5 5 5 5 8 7 8 6 3 4 4 4 3 3 5 4 4 4
15 18 20 20 18 15 23 25 26 21 12 15 14 14 15 14 11 8 6 9 5 3 7 10 11 11 11 9 8 4 5 4 4 3 7 7 6 6 6 4 4 4 4 4 5 4 5 4 3
19 24 24 15 11 14 19 18 22 22 14 18 22 11 11 8 8 9 9 8 9 9 8 8 10 13 8 9 4 4 5 3 4 5 5 8 8 7 6 5 4 5 3 5 4 4 2 3 4
25 26 20 20 10 18 14 16 19 17 15 8 10 9 9 12 12 10 10 8 9 8 9 10 9 9 8 9 6 5 5 4 3 1 3 4 7 7 6 4 4 3 3 3 3 3 5 3 2
25 14 21 18 11 17 10 18 21 13 17 19 17 14 19 14 15 13 10 7 11 8 8 10 9 9 9 9 7 8 5 4 3 4 3 5 7 6 6 5 5 4 2 4 3 3 3 3 4
23 15 18 13 16 17 19 10 15 9 9 9 10 11 11 13 13 12 8 13 11 9 8 8 10 9 9 8 8 6 6 4 3 4 8 5 5 6 6 6 4 4 3 3 4 3 4 4 4
16 16 18 16 12 11 18 15 23 14 11 9 9 10 13 11 9 6 15 16 12 11 9 10 9 7 8 8 8 9 8 5 6 5 5 4 3 3 2 3 3 4 3 4 4 4 5 5 4
16 12 6 10 11 19 14 13 17 7 13 22 15 13 6 8 13 18 19 15 14 13 12 9 9 8 8 9 8 8 8 8 8 6 5 6 3 1 3 2 2 3 4 5 4 4 4 4 3
13 16 9 14 12 17 13 9 13 20 12 10 10 7 8 11 13 13 13 14 14 14 11 9 10 8 9 9 8 7 8 5 4 4 4 4 3 4 3 3 4 4 4 4 3 2 4 4 3
19 17 19 17 9 9 6 14 21 26 20 10 14 10 11 14 14 15 12 13 14 13 10 10 10 8 8 8 7 7 6 8 6 6 4 3 5 3 4 4 3 3 2 3 3 3 3 3 2
19 10 7 11 14 14 7 13 14 12 19 16 8 15 13 14 15 13 11 13 12 11 11 10 9 8 7 8 7 6 7 7 6 6 5 5 4 2 6 4 3 2 2 2 3 2 3 4 2
8 17 12 9 8 12 6 12 11 20 15 11 12 17 17 16 16 13 13 13 11 10 11 10 8 8 8 7 6 7 7 7 6 6 5 5 3 5 5 5 4 3 2 4 3 2 2 4 2
19 21 16 9 19 9 5 11 8 6 7 10 14 17 16 18 15 15 16 13 12 12 10 9 8 8 8 7 7 6 6 7 6 5 6 5 4 3 4 3 4 3 4 3 3 3 3 1 5
Wind_Direction
135 164 243 352 31 190 241 258 245 334 33 13 37 52 2 17 98 148 180 118 123 141 159 161 161 159 155 153 154 154 155 152 150 153 154 151 149 149 148 147 152 167 166 154 188 245 268 240 227
181 212 285 266 161 268 268 255 143 359 24 5 356 244 82 89 83 105 94 137 139 147 155 162 164 161 160 158 158 159 162 159 159 160 158 158 159 160 158 159 173 195 196 197 212 233 248 251 239
330 255 357 184 201 210 229 276 142 141 338 314 30 355 40 133 100 126 135 129 123 130 142 157 166 163 165 164 161 163 169 166 165 163 162 165 169 169 166 178 200 213 216 223 229 240 252 260 253
226 260 294 247 257 264 249 270 118 89 31 311 261 126 75 87 96 134 132 127 128 147 158 161 171 173 171 170 168 169 172 173 171 169 167 175 182 178 177 198 217 230 234 242 246 247 247 252 259
250 267 249 234 261 268 268 250 156 157 197 216 215 237 123 80 117 118 131 145 152 162 167 163 172 177 176 173 174 174 176 179 179 178 176 183 184 184 190 205 218 231 239 248 256 270 272 276 257
271 155 268 238 260 263 275 275 203 199 274 326 41 156 146 152 127 158 159 170 165 162 170 169 173 180 179 178 177 179 180 184 186 186 182 184 185 186 197 209 222 231 242 252 259 269 267 269 259
237 4 240 266 268 279 274 335 38 54 13 47 52 85 156 151 169 170 178 197 166 169 166 170 177 180 180 181 180 179 184 187 190 191 190 188 188 189 199 208 224 232 237 233 243 247 253 256 255
218 161 287 269 269 280 287 316 315 341 18 148 101 22 163 234 191 189 180 194 254 167 163 174 174 178 181 182 181 181 185 191 192 193 195 194 193 194 204 210 217 217 220 227 237 246 248 248 247
205 222 220 249 253 264 300 311 326 356 19 343 354 85 304 293 269 32 59 330 310 152 169 165 175 181 184 184 183 183 184 189 193 196 197 195 187 199 217 215 206 212 219 216 228 235 249 247 245
215 219 218 231 261 278 288 307 303 306 32 315 293 352 302 303 22 34 355 315 306 297 170 174 176 182 179 183 185 183 182 182 188 195 195 183 189 204 219 210 206 210 213 209 223 232 239 246 220
230 238 244 250 260 268 285 295 291 299 298 237 245 234 244 235 251 73 326 292 264 248 152 177 176 182 178 185 176 181 184 177 179 188 188 189 196 209 209 195 171 191 197 201 221 233 225 211 220
244 239 241 248 254 272 275 283 285 286 278 282 297 270 244 264 254 212 234 249 261 257 213 173 178 178 183 182 181 178 180 180 180 190 190 182 197 197 199 189 186 187 179 199 208 207 207 219 234
236 242 244 251 245 254 268 271 273 274 286 284 291 298 279 266 255 230 215 231 241 234 220 170 173 178 184 186 180 176 181 175 174 185 190 186 186 187 198 221 172 180 173 188 203 212 208 213 230
262 248 252 245 248 254 258 266 270 268 272 288 285 282 271 258 256 245 234 234 234 211 209 164 176 182 182 186 179 176 175 169 176 183 184 185 175 174 185 204 197 184 180 174 182 208 166 177 210
268 271 270 249 247 248 261 264 255 270 274 269 266 262 263 267 260 244 236 226 188 199 211 169 176 181 183 188 171 174 170 166 175 174 175 172 164 167 175 178 175 192 195 179 165 210 197 206 242
268 275 258 254 254 251 249 261 261 259 256 268 285 277 270 254 249 262 256 200 199 193 199 186 177 177 182 182 158 159 156 165 170 145 160 165 155 164 178 193 205 190 177 163 174 208 230 228 229
232 238 251 255 237 252 227 269 270 272 263 256 256 258 260 254 254 266 240 224 211 204 203 182 167 172 173 152 147 144 144 136 140 133 142 155 172 166 167 187 197 172 156 170 192 219 195 216 238
214 222 235 247 243 232 240 252 263 261 260 259 259 250 249 245 236 240 255 232 228 234 206 184 159 159 154 135 119 105 115 123 115 139 172 167 160 168 179 178 202 153 160 201 211 215 220 203 213
262 234 246 246 242 255 254 259 266 266 249 261 258 260 245 242 235 237 226 242 260 164 158 169 145 151 145 150 150 138 137 133 114 133 154 159 156 166 165 165 157 168 186 215 218 211 221 237 218
248 262 259 265 253 244 247 255 251 253 256 250 250 254 254 260 228 236 248 239 180 163 140 131 132 148 143 150 123 124 133 134 128 143 178 148 151 154 145 162 174 183 207 240 251 214 192 211 180
230 238 252 259 294 282 296 289 282 282 276 273 258 255 230 217 227 234 234 202 142 141 136 121 125 130 118 126 117 96 93 60 82 128 144 157 133 122 143 167 167 202 197 225 232 191 176 197 242
243 236 246 261 251 255 246 273 261 267 268 257 259 253 258 259 259 244 232 147 146 148 124 115 119 123 126 129 123 137 135 139 171 156 135 134 136 145 162 162 178 205 184 198 211 201 192 166 208
251 228 258 254 242 261 258 260 261 202 249 282 266 259 251 242 230 222 186 133 123 115 115 114 121 115 125 126 125 125 121 135 123 124 119 125 121 135 167 180 178 177 186 204 202 206 196 189 176
266 241 246 257 260 268 242 227 259 240 253 249 259 258 258 257 245 117 113 118 120 113 107 116 115 114 114 120 124 124 109 138 113 117 118 127 125 151 170 195 177 186 190 210 218 218 205 205 196
250 235 249 235 229 239 218 240 249 245 226 241 243 255 267 108 111 122 126 129 126 122 119 118 114 115 109 114 117 100 114 111 118 134 138 133 126 169 228 171 129 173 203 213 201 198 215 220 202
252 223 212 216 212 251 256 248 252 243 239 240 237 230 126 105 110 112 122 124 128 124 122 120 121 121 110 116 114 114 114 115 116 103 120 141 155 174 191 176 190 198 208 215 196 214 228 238 227
252 249 224 248 277 247 239 244 265 259 256 239 240 156 126 121 119 122 122 123 125 128 128 121 129 121 118 124 121 119 100 93 100 97 110 129 133 159 172 188 189 214 204 205 192 191 205 230 225
231 254 236 222 231 256 232 258 255 289 236 236 176 136 129 122 121 126 121 122 128 131 128 123 125 129 133 130 130 131 128 121 127 116 131 128 150 176 161 186 193 215 171 92 169 193 235 216 206
284 240 247 234 199 235 245 266 254 236 221 215 159 143 139 135 133 132 125 128 134 127 131 132 132 133 138 134 139 143 134 133 124 135 134 139 178 173 175 206 187 163 84 107 126 140 239 198 186
280 286 225 231 222 247 212 260 294 98 113 146 148 142 136 134 135 129 131 135 130 134 128 130 132 132 149 140 143 133 118 116 121 125 133 156 162 192 208 234 176 142 121 116 129 153 207 36 60